Location: East Arcadia
(34.1056°N, 118.0176°W)
Time: 02:07:25
(UTC+00:00)

Cosmos 1743 - Pass Details

Date: 01 April 2023
Orbit: 496 x 508 km, 82.5° (Epoch: 08 June)

Event Time Altitude Azimuth Distance (km) Brightness Sun altitude
Rises 12:24:44 0° 343° (NNW) 2,588 6.3 -16.0°
Reaches altitude 10° 12:26:58 10° 334° (NNW) 1,699 5.2 -15.6°
Maximum altitude 12:30:22 35° 268° (W) 824 3.2 -14.9°
Enters shadow 12:32:38 18° 211° (SSW) 1,288 4.3 -14.4°
